UAE502 OMDB-VABB

Flight info

Callsign UAE502
Flight time N/A
Altitude 41000
Route IVURO DCT KUSEN A791 LALDO B505 NADSO A777 VAXIM P307 PARAR N571 SUGID DCT KETOR KETOR2A
Aircraft A359/H-SDE2E3GHIJ3J4J5LM1ORWXY/LB1D1

Departure

Time 2026-05-05 10:11
Airport Dubai International Airport (OMDB)

Arrival

Time N/A
Airport Chhatrapati Shivaji Maharaj International Airport (VABB)
Time Latitude Longitude Altitude Speed Heading
2026-05-05 09:18 25.24265 55.37516 28 ft 0 kts 211°
2026-05-05 09:52 25.24276 55.37523 27 ft 2 kts 208°
2026-05-05 09:53 25.24291 55.37532 27 ft 2 kts 207°
2026-05-05 09:53 25.24306 55.37540 27 ft 2 kts 203°
2026-05-05 09:53 25.24322 55.37546 25 ft 2 kts 196°
2026-05-05 09:53 25.24338 55.37550 25 ft 2 kts 182°
2026-05-05 09:54 25.24354 55.37548 27 ft 2 kts 153°
2026-05-05 09:54 25.24367 55.37536 25 ft 2 kts 123°
2026-05-05 09:54 25.24370 55.37532 26 ft 0 kts 122°
2026-05-05 10:03 25.24365 55.37539 28 ft 3 kts 122°
2026-05-05 10:03 25.24349 55.37568 28 ft 6 kts 122°
2026-05-05 10:03 25.24321 55.37615 28 ft 9 kts 122°
2026-05-05 10:04 25.24284 55.37681 28 ft 11 kts 122°
2026-05-05 10:04 25.24252 55.37753 28 ft 6 kts 86°
2026-05-05 10:04 25.24271 55.37773 28 ft 4 kts 35°
2026-05-05 10:04 25.24300 55.37796 29 ft 6 kts 35°
2026-05-05 10:05 25.24338 55.37824 30 ft 7 kts 33°
2026-05-05 10:05 25.24377 55.37852 32 ft 6 kts 34°
2026-05-05 10:05 25.24406 55.37874 34 ft 4 kts 34°
2026-05-05 10:05 25.24421 55.37885 35 ft 1 kts 34°
2026-05-05 10:06 25.24422 55.37885 35 ft 0 kts 34°
2026-05-05 10:06 25.24425 55.37888 35 ft 1 kts 34°
2026-05-05 10:06 25.24440 55.37900 36 ft 3 kts 34°
2026-05-05 10:07 25.24463 55.37917 36 ft 5 kts 34°
2026-05-05 10:07 25.24497 55.37942 36 ft 7 kts 34°
2026-05-05 10:07 25.24555 55.37987 33 ft 14 kts 34°
2026-05-05 10:07 25.24622 55.38035 31 ft 2 kts 32°
2026-05-05 10:08 25.24631 55.38042 31 ft 1 kts 32°
2026-05-05 10:08 25.24645 55.38051 32 ft 5 kts 32°
2026-05-05 10:08 25.24673 55.38071 33 ft 4 kts 31°
2026-05-05 10:08 25.24696 55.38086 34 ft 3 kts 31°
2026-05-05 10:09 25.24713 55.38097 35 ft 3 kts 31°
2026-05-05 10:09 25.24739 55.38110 36 ft 3 kts
2026-05-05 10:09 25.24758 55.38102 37 ft 4 kts 330°
2026-05-05 10:09 25.24781 55.38073 36 ft 7 kts 304°
2026-05-05 10:10 25.24784 55.38067 36 ft 0 kts 302°
2026-05-05 10:10 25.24851 55.37949 36 ft 52 kts 302°
2026-05-05 10:10 25.25161 55.37395 38 ft 120 kts 301°
2026-05-05 10:11 25.25689 55.36420 158 ft 167 kts 302°
2026-05-05 10:11 25.26285 55.35313 955 ft 164 kts 304°
2026-05-05 10:11 25.26906 55.34225 1582 ft 173 kts 304°
2026-05-05 10:11 25.27592 55.33021 1740 ft 199 kts 303°
2026-05-05 10:12 25.28364 55.31642 2026 ft 223 kts 302°
2026-05-05 10:12 25.29304 55.30215 2478 ft 238 kts 318°
2026-05-05 10:12 25.30774 55.29429 3104 ft 238 kts 356°
2026-05-05 10:12 25.32411 55.29420 3737 ft 236 kts
2026-05-05 10:13 25.34044 55.29515 4355 ft 242 kts
2026-05-05 10:13 25.35158 55.29566 4747 ft 244 kts
2026-05-05 10:13 25.35292 55.29572 4817 ft 244 kts
2026-05-05 10:13 25.36983 55.29640 5479 ft 245 kts
2026-05-05 10:14 25.38702 55.29750 6061 ft 246 kts 10°
2026-05-05 10:14 25.40273 55.30453 6564 ft 247 kts 38°
2026-05-05 10:14 25.41493 55.31850 6830 ft 261 kts 52°
2026-05-05 10:14 25.42635 55.33474 7187 ft 272 kts 53°
2026-05-05 10:15 25.43797 55.35109 7680 ft 276 kts 52°
2026-05-05 10:15 25.45019 55.36810 8229 ft 281 kts 52°
2026-05-05 10:15 25.46231 55.38479 8783 ft 283 kts 52°
2026-05-05 10:15 25.47473 55.40178 9338 ft 286 kts 52°
2026-05-05 10:16 25.48730 55.41898 9907 ft 288 kts 52°
2026-05-05 10:16 25.49974 55.43662 10298 ft 296 kts 53°
2026-05-05 10:16 25.50814 55.44879 10463 ft 305 kts 53°
2026-05-05 10:16 25.52047 55.46822 10658 ft 318 kts 60°
2026-05-05 10:17 25.52756 55.49167 10857 ft 330 kts 84°
2026-05-05 10:17 25.52530 55.51716 11043 ft 342 kts 108°
2026-05-05 10:17 25.51446 55.54070 11277 ft 353 kts 122°
2026-05-05 10:17 25.50088 55.56368 11497 ft 362 kts 123°
2026-05-05 10:18 25.48706 55.58734 11773 ft 368 kts 122°
2026-05-05 10:18 25.47320 55.61138 12104 ft 373 kts 122°
2026-05-05 10:18 25.45925 55.63571 12445 ft 377 kts 122°
2026-05-05 10:18 25.44518 55.66030 12786 ft 380 kts 122°
2026-05-05 10:19 25.43129 55.68539 13094 ft 384 kts 118°
2026-05-05 10:19 25.42180 55.71265 13459 ft 387 kts 104°
2026-05-05 10:19 25.41543 55.74211 13748 ft 391 kts 103°
2026-05-05 10:19 25.40948 55.77118 14052 ft 394 kts 103°
2026-05-05 10:20 25.40340 55.80069 14393 ft 396 kts 103°
2026-05-05 10:20 25.39711 55.83050 14738 ft 398 kts 103°
2026-05-05 10:20 25.39076 55.86037 15072 ft 400 kts 103°
2026-05-05 10:20 25.38435 55.89045 15423 ft 402 kts 103°
2026-05-05 10:21 25.37791 55.92058 15776 ft 404 kts 103°
2026-05-05 10:21 25.37142 55.95093 16143 ft 406 kts 103°
2026-05-05 10:21 25.36503 55.98099 16486 ft 409 kts 103°
2026-05-05 10:21 25.35844 56.01163 16842 ft 411 kts 103°
2026-05-05 10:22 25.35180 56.04250 17179 ft 413 kts 103°
2026-05-05 10:22 25.34514 56.07347 17544 ft 415 kts 103°
2026-05-05 10:22 25.33844 56.10459 17903 ft 418 kts 103°
2026-05-05 10:22 25.33169 56.13598 18221 ft 420 kts 103°
2026-05-05 10:23 25.32621 56.16770 18540 ft 422 kts 98°
2026-05-05 10:23 25.32258 56.19989 18854 ft 423 kts 96°
2026-05-05 10:23 25.31993 56.23229 19162 ft 425 kts 95°
2026-05-05 10:23 25.31767 56.26448 19483 ft 426 kts 94°
2026-05-05 10:24 25.31538 56.29729 19753 ft 429 kts 94°
2026-05-05 10:24 25.31296 56.33029 20042 ft 432 kts 94°
2026-05-05 10:24 25.31037 56.36340 20335 ft 434 kts 95°
2026-05-05 10:24 25.30766 56.39669 20620 ft 436 kts 95°
2026-05-05 10:25 25.30537 56.43007 20927 ft 437 kts 92°
2026-05-05 10:25 25.30422 56.46367 21194 ft 439 kts 91°
2026-05-05 10:25 25.30359 56.49761 21475 ft 441 kts 90°
2026-05-05 10:25 25.30306 56.53115 21741 ft 443 kts 90°
2026-05-05 10:26 25.30225 56.56523 22004 ft 446 kts 93°
2026-05-05 10:26 25.29818 56.59925 22268 ft 448 kts 102°
2026-05-05 10:26 25.28928 56.63228 22524 ft 449 kts 110°
2026-05-05 10:26 25.27818 56.66466 22783 ft 451 kts 112°
2026-05-05 10:27 25.26620 56.69671 23045 ft 453 kts 113°
2026-05-05 10:27 25.25377 56.72882 23297 ft 455 kts 114°
2026-05-05 10:27 25.24124 56.76096 23504 ft 457 kts 114°
2026-05-05 10:27 25.22881 56.79295 23704 ft 459 kts 114°
2026-05-05 10:28 25.21630 56.82542 23893 ft 462 kts 113°
2026-05-05 10:28 25.20378 56.85814 24090 ft 464 kts 113°
2026-05-05 10:28 25.19124 56.89104 24292 ft 466 kts 113°
2026-05-05 10:28 25.17868 56.92405 24475 ft 468 kts 113°
2026-05-05 10:29 25.16606 56.95725 24689 ft 470 kts 113°
2026-05-05 10:29 25.15336 56.99060 24884 ft 472 kts 113°
2026-05-05 10:29 25.14059 57.02410 25084 ft 474 kts 114°
2026-05-05 10:29 25.12779 57.05764 25278 ft 476 kts 114°
2026-05-05 10:30 25.11506 57.09095 25476 ft 478 kts 114°
2026-05-05 10:30 25.10211 57.12484 25679 ft 480 kts 114°
2026-05-05 10:30 25.08912 57.15877 25901 ft 482 kts 114°
2026-05-05 10:30 25.07603 57.19295 26096 ft 484 kts 114°
2026-05-05 10:31 25.06296 57.22703 26305 ft 486 kts 114°
2026-05-05 10:31 25.05463 57.24874 26429 ft 487 kts 114°
2026-05-05 10:31 25.04762 57.26701 26558 ft 488 kts 114°
2026-05-05 10:31 25.03433 57.30162 26753 ft 490 kts 114°
2026-05-05 10:32 25.02103 57.33623 26974 ft 492 kts 114°
2026-05-05 10:32 25.00781 57.37061 27195 ft 494 kts 114°
2026-05-05 10:32 24.99439 57.40546 27405 ft 496 kts 114°
2026-05-05 10:32 24.98088 57.44052 27622 ft 498 kts 114°
2026-05-05 10:33 24.96730 57.47574 27842 ft 500 kts 114°
2026-05-05 10:33 24.95367 57.51108 28057 ft 502 kts 114°
2026-05-05 10:33 24.94000 57.54647 28275 ft 504 kts 114°
2026-05-05 10:33 24.92626 57.58200 28494 ft 506 kts 114°
2026-05-05 10:34 24.91255 57.61746 28700 ft 509 kts 114°
2026-05-05 10:34 24.89863 57.65339 28920 ft 511 kts 114°
2026-05-05 10:34 24.88468 57.68939 29136 ft 513 kts 114°
2026-05-05 10:34 24.87062 57.72565 29350 ft 515 kts 114°
2026-05-05 10:35 24.85655 57.76190 29574 ft 517 kts 114°
2026-05-05 10:35 24.84233 57.79849 29799 ft 519 kts 114°
2026-05-05 10:35 24.82810 57.83508 29986 ft 522 kts 114°
2026-05-05 10:35 24.81325 57.87140 30180 ft 523 kts 116°
2026-05-05 10:36 24.79742 57.90761 30372 ft 525 kts 117°
2026-05-05 10:36 24.78145 57.94325 30569 ft 527 kts 117°
2026-05-05 10:36 24.76521 57.97939 30767 ft 529 kts 117°
2026-05-05 10:36 24.74895 58.01581 30968 ft 530 kts 117°
2026-05-05 10:37 24.73281 58.05226 31166 ft 532 kts 117°
2026-05-05 10:37 24.71663 58.08905 31361 ft 534 kts 117°
2026-05-05 10:37 24.70049 58.12584 31547 ft 536 kts 117°
2026-05-05 10:37 24.68431 58.16279 31739 ft 538 kts 117°
2026-05-05 10:38 24.66803 58.19993 31906 ft 540 kts 117°
2026-05-05 10:38 24.65169 58.23719 32091 ft 541 kts 117°
2026-05-05 10:38 24.63555 58.27393 32256 ft 543 kts 117°
2026-05-05 10:38 24.61908 58.31139 32433 ft 544 kts 117°
2026-05-05 10:39 24.60263 58.34877 32592 ft 546 kts 117°
2026-05-05 10:39 24.58605 58.38641 32785 ft 547 kts 117°
2026-05-05 10:39 24.56946 58.42402 33027 ft 547 kts 117°
2026-05-05 10:39 24.55288 58.46159 33269 ft 547 kts 117°
2026-05-05 10:40 24.53628 58.49918 33533 ft 547 kts 117°
2026-05-05 10:40 24.51975 58.53658 33778 ft 546 kts 117°
2026-05-05 10:40 24.50313 58.57413 34005 ft 546 kts 117°
2026-05-05 10:40 24.48652 58.61166 34275 ft 545 kts 117°
2026-05-05 10:41 24.47017 58.64854 34542 ft 544 kts 117°
2026-05-05 10:41 24.45361 58.68590 34829 ft 543 kts 117°
2026-05-05 10:41 24.43707 58.72317 35119 ft 542 kts 117°
2026-05-05 10:41 24.42059 58.76026 35420 ft 541 kts 117°
2026-05-05 10:42 24.38773 58.83429 36013 ft 539 kts 118°
2026-05-05 10:42 24.37123 58.87136 36314 ft 538 kts 118°
2026-05-05 10:42 24.35486 58.90813 36618 ft 537 kts 118°
2026-05-05 10:43 24.33845 58.94496 36927 ft 536 kts 118°
2026-05-05 10:43 24.32209 58.98162 37234 ft 535 kts 118°
2026-05-05 10:43 24.30597 59.01776 37555 ft 534 kts 118°
2026-05-05 10:43 24.28966 59.05428 37887 ft 532 kts 118°
2026-05-05 10:44 24.27341 59.09064 38250 ft 530 kts 118°
2026-05-05 10:44 24.25718 59.12692 38541 ft 529 kts 118°
2026-05-05 10:44 24.24094 59.16321 38780 ft 529 kts 118°
2026-05-05 10:44 24.22479 59.19927 39033 ft 528 kts 118°
2026-05-05 10:45 24.20868 59.23520 39290 ft 526 kts 118°
2026-05-05 10:45 24.19255 59.27115 39541 ft 525 kts 118°
2026-05-05 10:45 24.17667 59.30651 39794 ft 524 kts 118°
2026-05-05 10:45 24.16063 59.34221 40034 ft 522 kts 118°
2026-05-05 10:46 24.14458 59.37790 40288 ft 521 kts 118°
2026-05-05 10:46 24.12859 59.41343 40533 ft 520 kts 118°
2026-05-05 10:46 24.11266 59.44879 40731 ft 519 kts 118°
2026-05-05 10:47 24.08071 59.51966 40782 ft 518 kts 118°
2026-05-05 10:47 24.04878 59.59039 40778 ft 526 kts 118°
2026-05-05 10:48 24.01614 59.66248 40776 ft 530 kts 118°
2026-05-05 10:48 23.98335 59.73487 40781 ft 531 kts 118°
2026-05-05 10:49 23.95056 59.80717 40779 ft 531 kts 118°
2026-05-05 10:49 23.91773 59.87944 40781 ft 530 kts 118°
2026-05-05 10:50 23.88513 59.95107 40782 ft 530 kts 118°
2026-05-05 10:50 23.85234 60.02303 40784 ft 529 kts 118°
2026-05-05 10:51 23.81948 60.09503 40783 ft 529 kts 118°
2026-05-05 10:51 23.78664 60.16685 40786 ft 529 kts 118°
2026-05-05 10:52 23.75394 60.23828 40785 ft 529 kts 118°
2026-05-05 10:52 23.72108 60.30994 40792 ft 528 kts 118°
2026-05-05 10:53 23.68819 60.38156 40790 ft 528 kts 118°
2026-05-05 10:53 23.65525 60.45320 40788 ft 528 kts 118°
2026-05-05 10:54 23.62247 60.52436 40791 ft 528 kts 118°
2026-05-05 10:54 23.58947 60.59590 40796 ft 528 kts 118°
2026-05-05 10:55 23.55646 60.66735 40795 ft 528 kts 118°
2026-05-05 10:55 23.52342 60.73876 40795 ft 528 kts 118°
2026-05-05 10:56 23.49036 60.81012 40795 ft 528 kts 118°
2026-05-05 10:56 23.45749 60.88096 40797 ft 528 kts 118°
2026-05-05 10:57 23.42434 60.95228 40798 ft 528 kts 118°
2026-05-05 10:57 23.39112 61.02366 40799 ft 528 kts 118°
2026-05-05 10:58 23.35791 61.09491 40798 ft 528 kts 118°
2026-05-05 10:58 23.32467 61.16612 40802 ft 527 kts 118°
2026-05-05 10:59 23.29217 61.23691 40801 ft 527 kts 117°
2026-05-05 10:59 23.26044 61.30891 40801 ft 528 kts 117°
2026-05-05 11:00 23.22877 61.38078 40801 ft 527 kts 117°
2026-05-05 11:00 23.19685 61.45260 40805 ft 527 kts 117°
2026-05-05 11:01 23.16485 61.52428 40804 ft 527 kts 117°
2026-05-05 11:01 23.13305 61.59535 40808 ft 527 kts 117°
2026-05-05 11:02 23.10099 61.66693 40805 ft 526 kts 117°
2026-05-05 11:02 23.06891 61.73847 40805 ft 526 kts 117°
2026-05-05 11:03 23.03698 61.80968 40808 ft 526 kts 117°
2026-05-05 11:03 23.00505 61.88061 40812 ft 526 kts 117°
2026-05-05 11:04 22.97294 61.95184 40811 ft 525 kts 117°
2026-05-05 11:04 22.94086 62.02295 40808 ft 525 kts 117°
2026-05-05 11:05 22.90872 62.09410 40811 ft 525 kts 117°
2026-05-05 11:05 22.87680 62.16468 40812 ft 524 kts 117°
2026-05-05 11:06 22.84464 62.23566 40817 ft 524 kts 117°
2026-05-05 11:06 22.81244 62.30664 40815 ft 524 kts 117°
2026-05-05 11:07 22.78030 62.37737 40816 ft 524 kts 117°
2026-05-05 11:07 22.74828 62.44775 40815 ft 523 kts 117°
2026-05-05 11:08 22.71607 62.51842 40815 ft 523 kts 117°
2026-05-05 11:08 22.68383 62.58907 40814 ft 523 kts 117°
2026-05-05 11:09 22.65167 62.65947 40813 ft 523 kts 117°
2026-05-05 11:09 22.61935 62.73010 40815 ft 522 kts 117°
2026-05-05 11:10 22.58732 62.79999 40816 ft 522 kts 117°
2026-05-05 11:10 22.55499 62.87043 40816 ft 522 kts 117°
2026-05-05 11:11 22.52271 62.94067 40815 ft 522 kts 117°
2026-05-05 11:11 22.49034 63.01102 40817 ft 522 kts 117°
2026-05-05 11:12 22.45829 63.08056 40814 ft 521 kts 117°
2026-05-05 11:12 22.42603 63.15081 40814 ft 521 kts 117°
2026-05-05 11:13 22.39458 63.22130 40816 ft 521 kts 116°
2026-05-05 11:13 22.36322 63.29188 40815 ft 521 kts 116°
2026-05-05 11:14 22.33165 63.36252 40816 ft 521 kts 117°
2026-05-05 11:14 22.30033 63.43233 40816 ft 521 kts 117°
2026-05-05 11:15 22.26874 63.50260 40816 ft 520 kts 117°
2026-05-05 11:15 22.23711 63.57286 40815 ft 520 kts 117°
2026-05-05 11:16 22.20548 63.64303 40817 ft 520 kts 117°
2026-05-05 11:16 22.17883 63.70209 40815 ft 519 kts 117°
2026-05-05 11:17 22.14721 63.77207 40813 ft 519 kts 117°
2026-05-05 11:17 22.11552 63.84211 40812 ft 519 kts 117°
2026-05-05 11:18 22.08388 63.91194 40815 ft 519 kts 117°
2026-05-05 11:18 22.05215 63.98187 40819 ft 519 kts 117°
2026-05-05 11:19 22.02065 64.05120 40817 ft 519 kts 117°
2026-05-05 11:19 21.98890 64.12099 40819 ft 518 kts 117°
2026-05-05 11:20 21.95714 64.19069 40821 ft 518 kts 117°
2026-05-05 11:20 21.92539 64.26028 40821 ft 518 kts 117°
2026-05-05 11:21 21.89380 64.32942 40817 ft 518 kts 117°
2026-05-05 11:21 21.86199 64.39895 40818 ft 517 kts 117°
2026-05-05 11:22 21.83020 64.46835 40821 ft 517 kts 117°
2026-05-05 11:22 21.79840 64.53767 40820 ft 516 kts 117°
2026-05-05 11:23 21.76659 64.60692 40822 ft 516 kts 117°
2026-05-05 11:23 21.73498 64.67565 40824 ft 516 kts 117°
2026-05-05 11:24 21.70312 64.74481 40820 ft 516 kts 117°
2026-05-05 11:24 21.67122 64.81398 40820 ft 516 kts 117°
2026-05-05 11:25 21.63932 64.88306 40825 ft 516 kts 117°
2026-05-05 11:25 21.60755 64.95176 40824 ft 516 kts 117°
2026-05-05 11:26 21.57557 65.02083 40825 ft 516 kts 117°
2026-05-05 11:26 21.54357 65.08983 40824 ft 516 kts 117°
2026-05-05 11:27 21.51149 65.15893 40824 ft 516 kts 117°
2026-05-05 11:27 21.47973 65.22725 40822 ft 516 kts 117°
2026-05-05 11:28 21.44767 65.29613 40820 ft 516 kts 117°
2026-05-05 11:28 21.41549 65.36517 40823 ft 516 kts 117°
2026-05-05 11:29 21.38335 65.43403 40822 ft 516 kts 117°
2026-05-05 11:29 21.35141 65.50237 40823 ft 516 kts 117°
2026-05-05 11:30 21.31916 65.57128 40828 ft 516 kts 117°
2026-05-05 11:30 21.28692 65.64010 40823 ft 516 kts 117°
2026-05-05 11:31 21.25470 65.70876 40827 ft 516 kts 117°
2026-05-05 11:31 21.22239 65.77754 40827 ft 516 kts 117°
2026-05-05 11:32 21.19028 65.84581 40830 ft 516 kts 117°
2026-05-05 11:32 21.15796 65.91442 40827 ft 516 kts 117°
2026-05-05 11:33 21.12562 65.98300 40830 ft 516 kts 117°
2026-05-05 11:33 21.09391 66.05151 40831 ft 516 kts 116°
2026-05-05 11:34 21.06273 66.12060 40829 ft 516 kts 116°
2026-05-05 11:34 21.03142 66.18962 40829 ft 516 kts 116°
2026-05-05 11:35 20.99997 66.25874 40829 ft 516 kts 116°
2026-05-05 11:35 20.96855 66.32766 40828 ft 516 kts 116°
2026-05-05 11:36 20.93732 66.39608 40828 ft 516 kts 116°
2026-05-05 11:36 20.91855 66.43715 40827 ft 516 kts 116°
2026-05-05 11:37 20.90400 66.46896 40829 ft 516 kts 116°
2026-05-05 11:37 20.87249 66.53782 40829 ft 515 kts 116°
2026-05-05 11:38 20.84099 66.60654 40830 ft 515 kts 116°
2026-05-05 11:38 20.80947 66.67523 40833 ft 515 kts 116°
2026-05-05 11:39 20.77804 66.74362 40833 ft 515 kts 116°
2026-05-05 11:39 20.74642 66.81235 40830 ft 515 kts 116°
2026-05-05 11:40 20.71483 66.88093 40831 ft 515 kts 116°
2026-05-05 11:40 20.68316 66.94959 40833 ft 515 kts 116°
2026-05-05 11:41 20.66217 66.99504 40833 ft 515 kts 116°